Location: Ab? ar R?sh Ba?r?
(24.1861°N, 32.8847°E)
Time: 04:25:13
(UTC+00:00)

CZ-4B R/B - Pass Details

Date: 31 May 2022
Orbit: 809 x 881 km, 99.1° (Epoch: 01 July)

Event Time Altitude Azimuth Distance (km) Brightness Sun altitude
Rises 17:58:50 0° 215° (SW) 3,330 6.3 -18.0°
Reaches altitude 10° 18:03:20 10° 251° (WSW) 2,417 6.0 -18.8°
Maximum altitude 18:04:36 11° 265° (W) 2,366 6.2 -19.1°
Drops below altitude 10° 18:05:53 10° 279° (W) 2,429 6.5 -19.3°
Sets 18:10:30 0° 315° (NW) 3,387 7.9 -20.2°
